Starlink 31450

operational
NORAD ID: 59006 Int'l Des: 2024-036 Owner: SPXS Country: US Constellation: starlink
LEOCIRCULAR

Über Starlink 31450

Beschreibung wird geladen...

Live-Position

3D-Globus wird geladen...

Nächste Überflüge

Höhenverlauf

Altitude vs Time

uPlot chart will show altitude changes over time

Zweizeiliger Elementsatz

1 59006U 24036J 25350.59930198 .00000427 00000-0 26542-4 0 9990
2 59006 53.1604 103.9407 0001137 80.8883 279.2246 15.30191991102602
Epoch: 16. Dez. 2025 • Age: 21 hours

Aktueller Status

Höhe 479.1 km
Geschwindigkeit 7.63 km/s
Subsatellitenpunkt 44.62°N, 104.47°W
Startdatum 23. Feb. 2024
Alter 1.8 years
Typ internet

Technische Details

Klassifizierung Payload
Masse 730.00 kg
Trockenmasse 700.00 kg
Gesamtmasse 730.00 kg
Länge 0.30 m
Durchmesser 4.10 m
Spannweite 29.00 m
Form Box + pan
Hersteller SPXS
Bus-Typ Starlink V2M
Phasenstatus In Orbit
Besitzer/Staat SPXS/US

Große Konstellationen

Loading constellations...